Concord, CA

5:19 AM PDT on May 20, 2018 (GMT -0700)
Buchanan

Weather History for KCCR - February, 2014

Change the Weather History Date:

Sunday, February 23, 2014

  Actual Average Record
Temperature  
Mean Temperature 56 °F 54 °F  
Max Temperature 71 °F 63 °F 77 °F (2012)
Min Temperature 40 °F 44 °F 32 °F (2018)
Degree Days  
Heating Degree Days 9    
Month to date heating degree days 273  
Since 1 July heating degree days 1704  
Cooling Degree Days 0    
Month to date cooling degree days 0  
Year to date cooling degree days 0  
Growing Degree Days 6 (Base 50)    
Moisture  
Dew Point 44 °F    
Average Humidity 65    
Maximum Humidity 96    
Minimum Humidity 34    
Precipitation  
Precipitation 0.00 in - 0.45 in (1993)
Month to date precipitation 2.62  
Year to date precipitation 2.72  
Since 1 July precipitation 5.20  
Sea Level Pressure  
Sea Level Pressure 29.94 in    
Wind  
Wind Speed 2 mph (NW)    
Max Wind Speed 10 mph    
Max Gust Speed 13 mph    
Visibility 10 miles    
Events      
T = Trace of Precipitation, MM = Missing Value Source: NWS Daily Summary

Daily Weather History Graph

Daily Weather History Graph

Search for Another Location

Airport or City:

Astronomy

Feb. 23, 2014 Rise Set
Actual Time 6:47 AM PST 5:55 PM PST
Civil Twilight 6:21 AM PST 6:22 PM PST
Nautical Twilight 5:50 AM PST 6:52 PM PST
Astronomical Twilight 5:20 AM PST 7:23 PM PST
Moon 1:48 AM PST (2/23) 12:06 PM PST (2/23)
Length of Visible Light 12h 00m
Length of Day
11h 07m
Last Quarter, 38% of the Moon is Illuminated
Feb 23
Last Quarter
Mar 1
New
Mar 8
First Quarter
Mar 16
Full
Mar 23
Last Quarter

Hourly Weather History & Observations

Time (PST) Temp. Windchill Dew Point Humidity Pressure Visibility Wind Dir Wind Speed Gust Speed Precip Events Conditions
12:53 AM 46.0 °F - 45.0 °F 96% 29.94 in 10.0 mi Calm Calm - N/A   Clear
1:53 AM 45.0 °F - 42.1 °F 90% 29.94 in 10.0 mi Calm Calm - N/A   Clear
2:53 AM 43.0 °F - 41.0 °F 93% 29.93 in 10.0 mi Calm Calm - N/A   Clear
3:53 AM 42.1 °F - 41.0 °F 96% 29.94 in 10.0 mi Calm Calm - N/A   Clear
4:53 AM 42.1 °F - 39.9 °F 92% 29.94 in 10.0 mi Calm Calm - N/A   Clear
5:53 AM 42.1 °F - 39.9 °F 92% 29.95 in 10.0 mi Calm Calm - N/A   Clear
6:53 AM 41.0 °F - 39.0 °F 93% 29.96 in 10.0 mi Calm Calm - N/A   Partly Cloudy
7:53 AM 44.1 °F 42.5 °F 43.0 °F 96% 29.98 in 10.0 mi SE 3.5 mph - N/A   Clear
8:53 AM 48.9 °F - 45.0 °F 86% 29.99 in 10.0 mi Calm Calm - N/A   Partly Cloudy
9:53 AM 53.1 °F - 45.0 °F 74% 29.99 in 10.0 mi Calm Calm - N/A   Clear
10:53 AM 59.0 °F - 46.0 °F 62% 29.99 in 10.0 mi Variable 3.5 mph - N/A   Clear
11:53 AM 64.0 °F - 45.0 °F 50% 29.97 in 10.0 mi North 5.8 mph - N/A   Clear
12:53 PM 64.9 °F - 46.0 °F 50% 29.95 in 10.0 mi NW 5.8 mph - N/A   Clear
1:53 PM 68.0 °F - 44.1 °F 42% 29.93 in 10.0 mi NNW 8.1 mph - N/A   Clear
2:53 PM 70.0 °F - 46.9 °F 44% 29.92 in 10.0 mi NW 5.8 mph - N/A   Clear
3:53 PM 71.1 °F - 41.0 °F 34% 29.91 in 10.0 mi NNW 8.1 mph - N/A   Clear
4:53 PM 70.0 °F - 43.0 °F 38% 29.90 in 10.0 mi WNW 6.9 mph - N/A   Clear
5:53 PM 66.0 °F - 42.1 °F 42% 29.91 in 10.0 mi Calm Calm - N/A   Clear
6:53 PM 59.0 °F - 45.0 °F 60% 29.92 in 10.0 mi NNW 3.5 mph - N/A   Clear
7:53 PM 57.0 °F - 46.9 °F 69% 29.93 in 10.0 mi Calm Calm - N/A   Clear
8:53 PM 54.0 °F - 46.0 °F 75% 29.94 in 10.0 mi SE 4.6 mph - N/A   Clear
9:53 PM 52.0 °F - 44.1 °F 74% 29.94 in 10.0 mi Calm Calm - N/A   Clear
10:53 PM 48.9 °F - 44.1 °F 83% 29.95 in 10.0 mi Calm Calm - N/A   Clear
11:53 PM 46.9 °F - 43.0 °F 86% 29.95 in 10.0 mi South 3.5 mph - N/A   Clear